Back to catalog

STARLINK-36814

AliveCommunicationsVLEO
NORAD 67904·PAYLOAD·🇺🇸 United States

Launched Feb 22, 2026 from Vandenberg Space Force Base

Loading…

Next Passes (next 24 hours)

TLE

FreshSource: CelesTrak SupGP

Epoch: Sep 14, 2026, 15:20 UTC

1 67904C 26036A   26257.63937500 -.00020296  00000+0 -73532-3 0  2578
2 67904  42.9992 258.6099 0001502 273.3054 128.4205 15.27579976    15

Track STARLINK-36814 in real time with AllMySat

Download on the App Store